GW1618 Weather Reports


Display with metric or nautical units.
time (UTC)temp
F
wind
direction
speed
MPH
gust
MPH
rain 1hr
in
rain 24hr
in
rain mn
in
humidity
%
barometer
mb
20260902192033 64 169 11.0 22.0 0.00 0.01 0.00 67 1004.0
20260902191252 64 182 12.0 27.0 0.00 0.01 0.00 67 1004.0
20260902190433 64 179 13.0 29.0 0.00 0.01 0.00 65 1004.0
20260902185931 64 220 12.0 29.0 0.00 0.01 0.00 64 1004.0
20260902185431 65 210 10.0 22.0 0.00 0.01 0.00 64 1004.0
20260902184932 65 164 8.0 16.0 0.00 0.01 0.00 64 1004.0
20260902184439 65 167 8.0 18.0 0.00 0.01 0.00 64 1004.0
20260902183931 65 218 6.0 18.0 0.00 0.01 0.00 64 1004.2
20260902183437 65 199 5.0 13.0 0.00 0.01 0.00 64 1004.2
20260902182930 64 154 8.0 17.0 0.00 0.01 0.00 66 1004.2
20260902182832 64 183 9.0 17.0 0.00 0.01 0.00 65 1004.4
20260902181416 64 186 12.0 22.0 0.00 0.01 0.00 64 1004.4
20260902180915 64 223 10.0 22.0 0.00 0.01 0.00 63 1004.4
20260902180409 65 221 9.0 16.0 0.00 0.01 0.00 61 1004.4
20260902180216 65 191 8.0 18.0 0.00 0.01 0.00 60 1004.4
20260902175741 65 198 7.0 18.0 0.00 0.01 0.00 63 1004.4
20260902174915 64 189 6.0 13.0 0.00 0.01 0.00 64 1004.4
20260902174409 64 177 5.0 11.0 0.00 0.01 0.00 66 1004.4
20260902173906 64 174 4.0 11.0 0.00 0.01 0.00 67 1004.4
20260902173405 64 236 4.0 7.0 0.00 0.01 0.00 67 1004.4
20260902172906 64 200 5.0 11.0 0.00 0.01 0.00 67 1004.4
20260902172403 63 202 4.0 11.0 0.00 0.01 0.00 69 1004.5
20260902172215 63 168 3.0 5.0 0.00 0.01 0.00 68 1004.5
20260902171407 62 193 3.0 5.0 0.00 0.01 0.00 71 1004.5
20260902170904 62 231 3.0 5.0 0.00 0.01 0.00 72 1004.7
20260902170404 61 229 3.0 5.0 0.00 0.01 0.00 72 1004.7
20260902165903 61 220 2.0 5.0 0.00 0.01 0.00 74 1004.7
20260902165405 61 214 3.0 6.0 0.00 0.01 0.00 76 1004.7
20260902165220 61 214 3.0 6.0 0.00 0.01 0.00 75 1004.7
20260902164406 61 199 2.0 4.0 0.00 0.01 0.00 76 1004.7
20260902163910 61 235 2.0 4.0 0.00 0.01 0.00 75 1004.9
20260902163406 61 188 2.0 4.0 0.00 0.01 0.00 76 1004.9
20260902162856 60 177 2.0 4.0 0.00 0.01 0.00 76 1004.9
20260902162350 60 216 2.0 4.0 0.00 0.01 0.00 76 1005.0
20260902161854 60 229 2.0 4.0 0.00 0.01 0.00 76 1005.0
20260902161652 60 177 3.0 5.0 0.00 0.01 0.00 76 1005.0
20260902160845 60 235 3.0 5.0 0.00 0.01 0.00 76 1005.1
20260902160347 60 141 3.0 5.0 0.00 0.01 0.00 76 1005.1
20260902155846 60 216 2.0 5.0 0.00 0.01 0.00 76 1005.1
20260902155347 60 209 3.0 7.0 0.00 0.01 0.00 76 1005.5
20260902154854 60 192 4.0 7.0 0.00 0.01 0.00 76 1005.5
20260902154347 60 218 4.0 6.0 0.00 0.01 0.00 75 1005.5
20260902153848 60 190 4.0 9.0 0.00 0.01 0.00 76 1005.6
20260902153341 60 209 3.0 9.0 0.00 0.01 0.00 76 1005.6
20260902153224 60 194 2.0 5.0 0.00 0.01 0.00 77 1005.6
20260902152424 60 169 3.0 5.0 0.00 0.01 0.00 76 1005.7
20260902151640 60 212 2.0 5.0 0.00 0.01 0.00 77 1005.7
20260902150933 60 209 2.0 5.0 0.00 0.01 0.00 78 1006.1
20260902145848 60 202 3.0 5.0 0.00 0.01 0.00 79 1006.1
20260902145345 59 233 3.0 5.0 0.00 0.01 0.00 79 1006.2
20260902144841 59 219 3.0 6.0 0.00 0.01 0.00 79 1006.2
20260902144338 59 225 3.0 7.0 0.00 0.01 0.00 80 1006.2
20260902143831 59 197 2.0 7.0 0.00 0.01 0.00 80 1006.1
20260902143333 59 179 2.0 4.0 0.00 0.01 0.00 81 1006.1
20260902142830 59 202 1.0 3.0 0.00 0.01 0.00 82 1006.1
20260902142335 59 144 1.0 2.0 0.00 0.01 0.00 82 1006.4
20260902141828 59 182 1.0 3.0 0.00 0.01 0.00 82 1006.4
20260902141331 59 225 1.0 4.0 0.00 0.01 0.00 82 1006.4
20260902140835 58 229 2.0 5.0 0.00 0.01 0.00 82 1006.6
20260902140320 58 188 3.0 5.0 0.00 0.01 0.00 83 1006.6
20260902140120 58 244 2.0 4.0 0.00 0.01 0.00 83 1006.6
20260902135638 58 254 2.0 4.0 0.00 0.01 0.00 83 1006.6
20260902134815 59 226 2.0 5.0 0.00 0.01 0.00 83 1006.6
20260902134309 59 197 2.0 5.0 0.00 0.01 0.00 83 1006.6
20260902134057 59 237 3.0 7.0 0.00 0.01 0.00 83 1006.7
20260902133305 59 263 3.0 7.0 0.00 0.01 0.00 83 1006.7
20260902132807 59 217 3.0 6.0 0.00 0.01 0.00 82 1006.7
20260902132306 59 221 3.0 6.0 0.00 0.01 0.00 82 1006.7
20260902131804 59 219 3.0 6.0 0.00 0.01 0.00 83 1006.7
20260902131304 59 206 4.0 9.0 0.00 0.01 0.00 82 1006.7
20260902130803 59 175 3.0 9.0 0.00 0.01 0.00 82 1007.0
20260902130304 59 174 3.0 5.0 0.00 0.01 0.00 82 1007.0
20260902130103 59 175 2.0 4.0 0.00 0.01 0.00 83 1007.0
20260902125256 59 206 2.0 4.0 0.00 0.01 0.00 83 1007.1
20260902124749 59 242 2.0 5.0 0.00 0.01 0.00 83 1007.1
20260902124249 59 209 2.0 5.0 0.00 0.01 0.00 83 1007.1
20260902123739 59 228 2.0 5.0 0.00 0.01 0.00 84 1007.2
20260902123547 59 227 2.0 5.0 0.00 0.01 0.00 84 1007.2
20260902122738 58 195 2.0 4.0 0.00 0.01 0.00 84 1007.2
20260902122238 58 204 2.0 5.0 0.00 0.01 0.00 84 1007.4
20260902121744 58 211 3.0 5.0 0.00 0.01 0.00 84 1007.4
20260902121238 58 222 3.0 5.0 0.00 0.01 0.00 84 1007.4
20260902120738 58 207 3.0 5.0 0.00 0.01 0.00 84 1007.5
20260902120241 58 221 2.0 5.0 0.00 0.01 0.00 84 1007.5
20260902115745 58 214 3.0 5.0 0.00 0.01 0.00 84 1007.5
20260902115238 58 226 3.0 5.0 0.00 0.01 0.00 84 1007.6
20260902114739 58 233 2.0 4.0 0.00 0.01 0.00 84 1007.6
20260902114234 59 233 3.0 5.0 0.00 0.01 0.00 84 1007.6
20260902114051 59 227 3.0 6.0 0.00 0.01 0.00 85 1007.6
20260902113232 59 195 4.0 7.0 0.00 0.01 0.00 84 1007.6
20260902112732 59 208 4.0 8.0 0.00 0.01 0.00 84 1007.6
20260902112538 58 204 4.0 11.0 0.00 0.01 0.00 84 1007.7
20260902111736 58 175 3.0 11.0 0.00 0.01 0.00 85 1007.7
20260902111233 58 178 3.0 7.0 0.00 0.01 0.00 85 1007.7
20260902110827 58 210 3.0 8.0 0.00 0.01 0.00 85 1007.7
20260902105713 58 192 3.0 6.0 0.00 0.01 0.00 85 1007.7
20260902105458 58 229 3.0 6.0 0.00 0.01 0.00 85 1007.8
20260902104706 58 267 4.0 10.0 0.00 0.01 0.00 85 1007.8
20260902104510 58 244 4.0 10.0 0.00 0.01 0.00 85 1007.8
20260902103655 58 227 3.0 7.0 0.00 0.01 0.00 85 1007.7
20260902103148 59 213 3.0 7.0 0.00 0.01 0.00 85 1007.7
20260902102645 59 214 3.0 7.0 0.00 0.01 0.00 85 1007.7
20260902102148 59 216 4.0 7.0 0.00 0.01 0.00 84 1007.7
20260902101934 59 209 4.0 7.0 0.00 0.01 0.00 84 1007.7
20260902101137 58 179 3.0 6.0 0.00 0.01 0.00 85 1007.8
20260902100633 58 173 3.0 6.0 0.00 0.01 0.00 85 1007.8
20260902100136 59 142 3.0 6.0 0.00 0.01 0.00 85 1007.8
20260902095634 59 163 2.0 5.0 0.00 0.01 0.00 86 1008.1
20260902095139 59 159 1.0 4.0 0.00 0.01 0.00 86 1008.1
20260902094632 59 179 2.0 4.0 0.00 0.01 0.00 86 1008.1
20260902094423 59 173 1.0 3.0 0.00 0.01 0.00 86 1008.2
20260902093634 59 210 2.0 5.0 0.00 0.01 0.00 86 1008.2
20260902093133 59 195 2.0 6.0 0.00 0.01 0.00 86 1008.2
20260902092629 59 208 2.0 6.0 0.00 0.01 0.00 86 1008.2
20260902092136 59 195 2.0 5.0 0.00 0.01 0.00 86 1008.2
20260902091635 59 186 2.0 5.0 0.00 0.01 0.00 86 1008.2
20260902091132 59 205 3.0 5.0 0.00 0.01 0.00 86 1008.4
20260902090622 59 204 3.0 5.0 0.00 0.01 0.00 86 1008.4
20260902090109 59 254 3.0 5.0 0.00 0.01 0.00 86 1008.4
20260902085614 59 261 2.0 5.0 0.00 0.01 0.00 86 1008.7
20260902085110 59 211 2.0 6.0 0.00 0.01 0.00 86 1008.7
20260902084934 59 232 3.0 6.0 0.00 0.01 0.00 85 1008.7
20260902084431 59 254 3.0 6.0 0.00 0.01 0.00 85 1008.7
20260902083605 59 269 3.0 6.0 0.00 0.01 0.00 85 1008.7
20260902083103 59 219 3.0 7.0 0.00 0.01 0.00 85 1008.7
20260902082601 59 221 3.0 7.0 0.00 0.01 0.00 85 1009.0
20260902082438 59 225 1.0 4.0 0.00 0.01 0.00 85 1009.0
20260902081935 60 259 1.0 4.0 0.00 0.01 0.00 85 1009.0
20260902081431 60 164 1.0 3.0 0.00 0.01 0.00 85 1009.2
20260902080611 60 169 3.0 6.0 0.00 0.01 0.00 85 1009.2
20260902080045 60 192 3.0 6.0 0.00 0.01 0.00 85 1009.2
20260902075533 60 153 3.0 5.0 0.00 0.01 0.00 85 1009.2
20260902075039 60 204 3.0 5.0 0.00 0.01 0.00 85 1009.2
20260902074539 60 174 3.0 5.0 0.00 0.01 0.00 85 1009.2
20260902074041 60 187 3.0 6.0 0.00 0.01 0.00 85 1009.2
20260902073537 60 185 2.0 6.0 0.00 0.01 0.00 85 1009.2
20260902073034 60 201 2.0 4.0 0.00 0.01 0.00 85 1009.2
20260902072532 60 179 2.0 5.0 0.00 0.01 0.00 85 1009.2
20260902072032 60 246 2.0 5.0 0.00 0.01 0.00 85 1009.2
20260902071531 60 196 2.0 5.0 0.00 0.01 0.00 85 1009.2
20260902071029 60 221 2.0 4.0 0.00 0.01 0.00 85 1009.2
20260902070838 60 189 2.0 4.0 0.00 0.01 0.00 85 1009.2
20260902070029 60 206 2.0 5.0 0.00 0.01 0.00 85 1009.2
20260902065855 60 217 3.0 6.0 0.00 0.01 0.01 84 1009.1
20260902065031 60 175 3.0 6.0 0.00 0.01 0.01 84 1009.1
20260902064528 60 198 3.0 6.0 0.00 0.01 0.01 84 1009.1
20260902064032 60 188 3.0 5.0 0.00 0.01 0.01 84 1009.0
20260902063531 60 192 3.0 6.0 0.00 0.01 0.01 84 1009.0
20260902063035 60 163 3.0 6.0 0.00 0.01 0.01 83 1009.0
20260902062522 60 187 3.0 5.0 0.00 0.01 0.01 82 1009.1
20260902062010 61 163 2.0 4.0 0.00 0.01 0.01 81 1009.1
20260902061505 61 196 1.0 4.0 0.00 0.01 0.01 79 1009.1
20260902061001 61 211 1.0 3.0 0.00 0.01 0.01 78 1009.2
20260902060812 61 241 1.0 4.0 0.00 0.01 0.01 78 1009.2
20260902060006 61 181 2.0 4.0 0.00 0.01 0.01 77 1009.2
20260902055503 61 184 2.0 5.0 0.00 0.01 0.01 77 1009.3
20260902055003 61 176 3.0 6.0 0.00 0.01 0.01 77 1009.3
20260902054504 61 139 3.0 6.0 0.00 0.01 0.01 76 1009.3
20260902054002 62 164 4.0 7.0 0.00 0.01 0.01 76 1009.6
20260902053505 62 169 3.0 7.0 0.00 0.01 0.01 76 1009.6
20260902053005 62 182 3.0 6.0 0.00 0.01 0.01 76 1009.6
20260902052507 62 241 3.0 6.0 0.00 0.01 0.01 76 1009.6
20260902052007 62 205 3.0 6.0 0.00 0.01 0.01 76 1009.6
20260902051813 62 253 3.0 5.0 0.00 0.01 0.01 76 1009.6
20260902051004 62 196 4.0 7.0 0.00 0.01 0.01 75 1009.7
20260902050501 62 173 5.0 8.0 0.00 0.01 0.01 75 1009.7
20260902050228 62 215 4.0 9.0 0.00 0.01 0.01 74 1009.7
20260902045501 62 219 4.0 10.0 0.00 0.01 0.01 74 1009.6
20260902045007 62 220 4.0 10.0 0.00 0.01 0.01 74 1009.6
20260902044502 62 188 3.0 7.0 0.00 0.01 0.01 74 1009.6
20260902044001 62 206 2.0 7.0 0.00 0.01 0.01 74 1009.6
20260902043503 62 244 2.0 6.0 0.00 0.01 0.01 74 1009.6
20260902043001 62 250 2.0 4.0 0.00 0.01 0.01 74 1009.6
20260902042501 62 275 2.0 4.0 0.00 0.01 0.01 74 1009.7
20260902042003 62 238 2.0 4.0 0.00 0.01 0.01 74 1009.7
20260902041507 62 242 2.0 4.0 0.00 0.01 0.01 74 1009.7
20260902041006 62 252 1.0 3.0 0.00 0.01 0.01 74 1009.6
20260902040817 62 281 2.0 4.0 0.00 0.01 0.01 74 1009.6
20260902040004 62 290 2.0 4.0 0.00 0.01 0.01 74 1009.6
20260902035501 62 273 2.0 4.0 0.00 0.01 0.01 74 1009.5
20260902035003 62 281 2.0 4.0 0.00 0.01 0.01 73 1009.5
20260902034501 62 261 2.0 3.0 0.00 0.01 0.01 74 1009.5
20260902034006 62 261 2.0 4.0 0.00 0.01 0.01 74 1009.5
20260902033556 62 305 3.0 5.0 0.00 0.01 0.01 74 1009.5
20260902032820 63 308 2.0 5.0 0.00 0.01 0.01 74 1009.4
20260902031504 63 330 2.0 4.0 0.00 0.01 0.01 72 1009.4
20260902031005 64 291 3.0 6.0 0.00 0.01 0.01 72 1009.3
20260902030504 64 245 3.0 6.0 0.00 0.01 0.01 72 1009.3
20260902030009 64 238 3.0 6.0 0.00 0.01 0.01 72 1009.3
20260902025801 64 217 3.0 6.0 0.00 0.01 0.01 72 1009.3
20260902025000 64 185 3.0 5.0 0.00 0.01 0.01 71 1009.3
20260902024506 64 204 4.0 7.0 0.00 0.01 0.01 71 1009.3
20260902024005 64 240 4.0 7.0 0.00 0.01 0.01 70 1009.2
20260902023507 64 263 4.0 7.0 0.00 0.01 0.01 70 1009.2
20260902023001 64 272 4.0 9.0 0.00 0.01 0.01 70 1009.2
20260902022756 64 221 4.0 9.0 0.00 0.01 0.01 71 1009.4
20260902021947 64 186 4.0 7.0 0.00 0.01 0.01 72 1009.4
20260902021439 64 217 3.0 7.0 0.00 0.01 0.01 71 1009.4
20260902020936 64 243 3.0 7.0 0.00 0.01 0.01 72 1009.6
20260902020439 64 192 3.0 7.0 0.00 0.01 0.01 72 1009.6
20260902015936 64 189 3.0 6.0 0.00 0.01 0.01 72 1009.6
20260902015436 64 224 3.0 6.0 0.00 0.01 0.01 72 1009.5
20260902014937 64 228 3.0 7.0 0.00 0.01 0.01 72 1009.5
20260902014435 64 193 3.0 7.0 0.00 0.01 0.01 72 1009.5
20260902014253 64 178 4.0 7.0 0.00 0.01 0.01 72 1009.3
20260902013750 64 192 4.0 7.0 0.00 0.01 0.01 72 1009.3
20260902013249 64 171 3.0 6.0 0.00 0.01 0.01 71 1009.3
20260902012438 64 163 3.0 5.0 0.00 0.01 0.01 71 1009.3
20260902011934 64 201 3.0 6.0 0.00 0.01 0.01 70 1009.3
20260902011430 64 179 4.0 9.0 0.00 0.01 0.01 69 1009.3
20260902010947 65 178 4.0 9.0 0.00 0.01 0.01 69 1009.2
20260902005937 65 209 6.0 14.0 0.00 0.01 0.01 68 1009.2
20260902005434 65 235 8.0 19.0 0.00 0.01 0.01 68 1009.3
20260902004928 65 216 6.0 19.0 0.00 0.01 0.01 68 1009.3
20260902004423 65 207 5.0 10.0 0.00 0.01 0.01 68 1009.3
20260902003953 66 304 5.0 10.0 0.00 0.01 0.01 67 1009.1
20260902002855 66 173 5.0 11.0 0.00 0.01 0.01 68 1009.1
20260902002355 66 167 5.0 10.0 0.00 0.01 0.01 68 1009.2
20260902001856 66 180 5.0 10.0 0.00 0.01 0.01 69 1009.2
20260902001400 66 209 4.0 10.0 0.00 0.01 0.01 68 1009.2
20260902000855 66 208 4.0 11.0 0.00 0.01 0.01 68 1009.2
20260902000356 66 190 5.0 11.0 0.00 0.01 0.01 69 1009.2
20260901235849 66 178 5.0 10.0 0.00 0.01 0.01 69 1009.2
20260901235348 66 201 5.0 10.0 0.00 0.01 0.01 68 1009.3
20260901234849 66 202 5.0 12.0 0.00 0.01 0.01 68 1009.3
20260901234347 66 180 5.0 12.0 0.00 0.01 0.01 67 1009.3
20260901233846 66 240 6.0 14.0 0.00 0.01 0.01 66 1009.3
20260901233346 66 198 6.0 14.0 0.00 0.01 0.01 66 1009.3
20260901232845 66 229 6.0 12.0 0.00 0.01 0.01 65 1009.3
20260901232347 66 245 6.0 12.0 0.00 0.01 0.01 66 1009.2
20260901231844 66 237 6.0 12.0 0.00 0.01 0.01 65 1009.2
20260901231343 66 238 6.0 12.0 0.00 0.01 0.01 65 1009.2
20260901230843 66 227 5.0 11.0 0.00 0.01 0.01 68 1009.2
20260901230346 66 224 6.0 12.0 0.00 0.01 0.01 69 1009.2
20260901225841 65 228 8.0 13.0 0.00 0.01 0.01 72 1009.2
20260901225337 65 206 7.0 13.0 0.00 0.01 0.01 71 1009.2
20260901224822 65 233 7.0 13.0 0.00 0.01 0.01 70 1009.2
20260901224640 65 181 7.0 13.0 0.00 0.01 0.01 72 1009.2
20260901223810 65 186 5.0 12.0 0.00 0.01 0.01 72 1009.3
20260901223307 64 194 3.0 12.0 0.01 0.01 0.01 75 1009.3
20260901222750 64 236 3.0 7.0 0.01 0.01 0.01 79 1009.3
20260901222249 65 271 2.0 7.0 0.01 0.01 0.01 76 1009.3
20260901221739 64 157 1.0 4.0 0.01 0.01 0.01 78 1009.3
20260901221232 64 238 2.0 4.0 0.01 0.01 0.01 78 1009.3
20260901221047 63 233 1.0 4.0 0.01 0.01 0.01 78 1009.5
20260901220531 63 202 2.0 4.0 0.01 0.01 0.01 79 1009.5
20260901215707 63 254 3.0 5.0 0.01 0.01 0.01 79 1009.5
20260901215215 63 223 2.0 5.0 0.01 0.01 0.01 79 1009.7
20260901214707 63 185 3.0 6.0 0.01 0.01 0.01 80 1009.7
20260901214250 63 224 2.0 6.0 0.01 0.01 0.01 79 1009.7
20260901213202 63 348 4.0 7.0 0.00 0.00 0.00 78 1009.5
20260901212707 62 14 6.0 10.0 0.00 0.00 0.00 78 1009.5
20260901212206 63 359 6.0 10.0 0.00 0.00 0.00 78 1009.6
20260901212025 63 4 6.0 10.0 0.00 0.00 0.00 77 1009.6
20260901211517 64 15 4.0 7.0 0.00 0.00 0.00 74 1009.6
20260901210712 64 308 3.0 9.0 0.00 0.00 0.00 72 1009.7
20260901210208 64 152 3.0 9.0 0.00 0.00 0.00 71 1009.7
20260901210019 64 173 4.0 7.0 0.00 0.00 0.00 71 1009.7
20260901205202 64 181 5.0 10.0 0.00 0.00 0.00 72 1009.7
20260901204701 64 204 5.0 10.0 0.00 0.00 0.00 71 1009.7
20260901204202 64 247 5.0 10.0 0.00 0.00 0.00 72 1009.7
20260901204014 64 208 5.0 12.0 0.00 0.00 0.00 71 1009.7
20260901203201 64 219 5.0 12.0 0.00 0.00 0.00 71 1009.7
20260901202712 64 223 5.0 14.0 0.00 0.00 0.00 71 1009.7
20260901202203 64 265 5.0 14.0 0.00 0.00 0.00 71 1009.7
20260901201700 64 204 5.0 11.0 0.00 0.00 0.00 71 1009.7
20260901201157 64 233 5.0 10.0 0.00 0.00 0.00 70 1009.7
20260901200655 64 241 6.0 12.0 0.00 0.00 0.00 70 1009.7
20260901200139 64 227 8.0 14.0 0.00 0.00 0.00 70 1009.7
20260901195639 65 213 7.0 14.0 0.00 0.00 0.00 70 1009.7
20260901195135 65 213 5.0 11.0 0.00 0.00 0.00 68 1009.7
20260901194626 65 236 5.0 11.0 0.00 0.00 0.00 67 1009.7
20260901194427 65 264 5.0 10.0 0.00 0.00 0.00 67 1009.7
20260901193612 65 235 5.0 13.0 0.00 0.00 0.00 67 1009.7
20260901193115 66 209 4.0 13.0 0.00 0.00 0.00 66 1009.7
20260901192614 66 199 5.0 12.0 0.00 0.00 0.00 67 1009.7